Location: Poughquag
(41.6090°N, 73.6820°W)
Time: 09:50:40
(UTC-05:00)

SR - Pass Details

Date: 08 December 2023
Orbit: 574 x 868 km, 66.7° (Epoch: 25 February)

Event Time Altitude Azimuth Distance (km) Brightness Sun altitude
Rises 09:06:45 0° 167° (SSE) 3,224 ? 15.8°
Reaches altitude 10° 09:09:38 10° 151° (SSE) 2,353 ? 16.1°
Maximum altitude 09:13:33 20° 105° (ESE) 1,799 ? 16.6°
Drops below altitude 10° 09:17:37 10° 59° (ENE) 2,473 ? 17.0°
Sets 09:20:44 0° 44° (NE) 3,440 ? 17.3°
